Regional Weather Roundup
Issued by NWS

Home | Current Version | Previous Version | Text Only | Print | Product List | Glossary Off
Versions: 1 2 3 4 5 6 7 8 9 10 11 12 13 14 15 16 17 18 19 20 21 22 23 24 25 26 27 28 29 30 31 32 33 34 35 36 37 38 39 40 41 42 43 44 45 46 47 48 49 50

000
ASUS45 KABQ 011201
RWRNM
WEATHER ROUNDUP FOR NEW MEXICO
NATIONAL WEATHER SERVICE ALBUQUERQUE NM
600 AM MDT MON SEP 01 2014

NOTE: "FAIR" MEANS FEW OR NO CLOUDS BELOW 12,000 FEET AGL WITH NO
       SIGNIFICANT WEATHER OR OBSTRUCTIONS TO VISION.

      THIS PRODUCT IS RELEASED AS TWO VERSIONS.  ONE VERSION NEAR
      THE TOP OF THE HOUR CONTAINING PRELIMINARY DATA FROM ALBUQUERQUE
      AND OTHER STATIONS.  A FINAL VERSION WITH ADDITIONAL DATA IS
      ISSUED ABOUT 10 MINUTES AFTER THE HOUR.

NMZ501-503-504-510>518-011300-
NORTHWEST PLATEAU/NORTHCENTRAL MOUNTAINS

CITY           SKY/WX    TMP DP  RH WIND       PRES   REMARKS
FARMINGTON     CLEAR     58  36  43 NW5       30.06R
6HR MIN TEMP:  57; 6HR MAX TEMP:  72;

LOS ALAMOS     CLEAR     66  35  31 N3        30.20R
SANTA FE       CLEAR     51  38  60 N7        30.13R
6HR MIN TEMP:  50; 6HR MAX TEMP:  70;

ANGEL FIRE     FAIR      40  33  74 CALM      30.27R

$$
NMZ402-403-502-505>509-011300-
WESTCENTRAL MOUNTAINS/SOUTHWEST MOUNTAINS

CITY           SKY/WX    TMP DP  RH WIND       PRES   REMARKS
GALLUP         CLEAR     55  35  47 CALM      30.19R
6HR MIN TEMP:  54; 6HR MAX TEMP:  69;

SILVER CITY    CLEAR     63  37  39 NW14      30.13S

$$
NMZ407-409-411-412-011300-
SOUTHERN DESERTS

CITY           SKY/WX    TMP DP  RH WIND       PRES   REMARKS
LORDSBURG      FAIR      61  37  41 MISG      30.05R
DEMING         CLEAR     65  41  41 W10       30.03R
6HR MIN TEMP:  65; 6HR MAX TEMP:  75;

LAS CRUCES     CLEAR     66  37  35 W5        30.04R
HOLLOMAN AFB   CLEAR     68  41  37 SE6       29.98R
ALAMOGORDO     CLEAR     63  39  42 CALM      30.00R
T OR C         CLEAR     72  41  32 NW7       30.05R
6HR MIN TEMP:  70; 6HR MAX TEMP:  78;


$$
NMZ519>523-011300-
CENTRAL VALLEYS/CENTRAL HIGHLANDS

CITY           SKY/WX    TMP DP  RH WIND       PRES   REMARKS
ALBUQUERQUE    CLEAR     64  40  41 SE7       30.09R
6HR MIN TEMP:  64; 6HR MAX TEMP:  79;

DOUBLE EAGLE   CLEAR     63  37  39 CALM      30.12S
CLINES CORNERS CLEAR     52  36  54 NW12      30.17S
6HR MIN TEMP:  52; 6HR MAX TEMP:  63;

BELEN          FAIR      63  39  40 SW3       30.08S
6HR MIN TEMP:  63; 6HR MAX TEMP:  72;

SOCORRO        FAIR      75  39  27 CALM      30.06R
6HR MIN TEMP:  67; 6HR MAX TEMP:  84;


$$
NMZ524>526-539-540-011300-
SOUTHCENTRAL MOUNTAINS

CITY           SKY/WX    TMP DP  RH WIND       PRES   REMARKS
RUIDOSO        NOT AVBL

$$
NMZ527>531-011300-
NORTHEAST HIGHLANDS/NORTHEAST PLAINS

CITY           SKY/WX    TMP DP  RH WIND       PRES   REMARKS
LAS VEGAS      CLEAR     64  34  32 N3        30.15R
6HR MIN TEMP:  57; 6HR MAX TEMP:  68;

RATON          CLEAR     52  38  58 NE12      30.09R
6HR MIN TEMP:  50; 6HR MAX TEMP:  64;

CLAYTON        CLEAR     60  48  64 N13       30.04R
6HR MIN TEMP:  58; 6HR MAX TEMP:  63;


$$
NMZ532>537-011300-
EASTCENTRAL PLAINS

CITY           SKY/WX    TMP DP  RH WIND       PRES   REMARKS
TUCUMCARI      CLEAR     65  52  62 N7        29.97R
6HR MIN TEMP:  65; 6HR MAX TEMP:  78;

CANNON AFB     CLEAR     64  59  84 W5        29.96R
6HR MIN TEMP:  64; 6HR MAX TEMP:  73;

CLOVIS AIRPORT   N/A     66  55  68 SW8       29.98R

$$
NMZ028-029-538-011300-
SOUTHEAST PLAINS

CITY           SKY/WX    TMP DP  RH WIND       PRES   REMARKS
ROSWELL        CLEAR     65  45  48 SW8       29.93R
6HR MIN TEMP:  64; 6HR MAX TEMP:  78;

CARLSBAD       CLEAR     68  55  63 SW3       29.91R
6HR MIN TEMP:  68; 6HR MAX TEMP:  85;

HOBBS          CLEAR     72  61  68 S7        29.95


$$


USA.gov is the U.S. government's official web portal to all federal, state and local government web resources and services.